Location: Dąbrowa Miętka
(51.3714°N, 18.6370°E)
Time: 04:57:24
(UTC+01:00)

ISS - Visible Passes

Search period start: 24 November 2017 00:00
Search period end: 04 December 2017 00:00
Orbit: 402 x 407 km, 51.6° (Epoch: 24 November)

Date Brightness Start Highest point End Pass type
(mag) Time Alt. Az. Time Alt. Az. Time Alt. Az.
28 Nov -1.3 18:17:01 10° SSW 18:17:50 15° SSW 18:17:50 15° SSW visible
29 Nov -1.8 17:25:28 10° S 17:27:36 16° SE 17:27:45 16° SE visible
29 Nov -0.4 19:00:22 10° WSW 19:00:25 10° WSW 19:00:25 10° WSW visible
30 Nov -1.3 16:35:05 10° SE 16:35:29 10° SE 16:35:53 10° SE visible
30 Nov -2.3 18:08:10 10° SW 18:10:15 30° SSW 18:10:15 30° SSW visible
01 Dec -2.5 17:16:09 10° SSW 17:19:01 28° SSE 17:20:01 23° ESE visible
01 Dec -0.7 18:51:57 10° WSW 18:52:40 16° WSW 18:52:40 16° WSW visible
02 Dec -1.8 16:24:24 10° S 16:26:48 19° SE 16:29:12 10° E visible
02 Dec -3.3 17:59:36 10° WSW 18:02:23 55° SSW 18:02:23 55° SSW visible
03 Dec -3.2 17:07:19 10° SW 17:10:29 46° SSE 17:12:04 25° E visible
03 Dec -1.1 18:43:35 10° W 18:44:42 20° W 18:44:42 20° W visible
